DW0868 Weather Reports


Display with metric or nautical units.
time (UTC)temp
F
wind
direction
speed
MPH
gust
MPH
rain 1hr
in
rain 24hr
in
rain mn
in
humidity
%
barometer
mb
20260505061512 51 275 7.0 0.0 0.00 0.00 0.00 85 1011.0
20260505060024 51 227 8.0 0.0 0.00 0.00 0.00 85 1011.0
20260505054518 51 252 9.0 0.0 0.00 0.00 0.00 85 1011.0
20260505053010 51 282 10.0 0.0 0.00 0.00 0.00 85 1010.8
20260505051507 51 246 9.0 0.0 0.00 0.00 0.00 85 1010.9
20260505041501 51 252 9.0 0.0 0.00 0.00 0.00 84 1011.3
20260505034558 51 294 10.0 0.0 0.00 0.00 0.00 83 1011.4
20260505033114 51 240 10.0 0.0 0.00 0.00 0.00 83 1011.4
20260505031557 51 242 9.0 0.0 0.00 0.00 0.00 82 1011.5
20260505030056 52 251 10.0 0.0 0.00 0.00 0.00 82 1011.5
20260505024604 52 251 10.0 0.0 0.00 0.00 0.00 81 1011.5
20260505023105 52 240 11.0 0.0 0.00 0.00 0.00 80 1011.5
20260505021555 52 275 12.0 0.0 0.00 0.00 0.00 80 1011.6
20260505020053 52 263 14.0 0.0 0.00 0.00 0.00 79 1011.5
20260505014551 52 275 14.0 0.0 0.00 0.00 0.00 78 1011.3
20260505013048 52 280 13.0 0.0 0.00 0.00 0.00 78 1011.1
20260505011555 52 269 13.0 0.0 0.00 0.00 0.00 76 1011.0
20260505010047 52 274 14.0 0.0 0.00 0.00 0.00 76 1010.8
20260505004550 53 267 14.0 0.0 0.00 0.00 0.00 74 1010.5
20260505003045 53 273 14.0 0.0 0.00 0.00 0.00 72 1010.4
20260505001545 53 221 14.0 0.0 0.00 0.00 0.00 70 1010.2
20260505000047 53 223 13.0 0.0 0.00 0.00 0.00 71 1010.0
20260504234610 53 273 13.0 0.0 0.00 0.00 0.00 71 1009.9
20260504233046 53 281 13.0 0.0 0.00 0.00 0.00 71 1009.7
20260504231552 53 253 14.0 0.0 0.00 0.00 0.00 70 1009.6
20260504230042 53 268 14.0 0.0 0.00 0.00 0.00 71 1009.5
20260504224542 54 230 15.0 0.0 0.00 0.00 0.00 71 1009.4
20260504223042 54 296 15.0 0.0 0.00 0.00 0.00 68 1009.3
20260504221544 55 250 15.0 0.0 0.00 0.00 0.00 68 1009.3
20260504220041 55 243 14.0 0.0 0.00 0.00 0.00 68 1009.3
20260504214544 55 282 15.0 0.0 0.00 0.00 0.00 67 1009.4
20260504213046 56 281 15.0 0.0 0.00 0.00 0.00 65 1009.2
20260504211539 56 264 16.0 0.0 0.00 0.00 0.00 65 1009.3
20260504210047 57 306 17.0 0.0 0.00 0.00 0.00 65 1009.2
20260504204617 57 266 16.0 0.0 0.00 0.00 0.00 63 1009.2
20260504203038 58 313 15.0 0.0 0.00 0.00 0.00 63 1009.0
20260504201537 57 223 17.0 0.0 0.00 0.00 0.00 62 1009.0
20260504200040 59 282 16.0 0.0 0.00 0.00 0.00 57 1008.9
20260504194545 60 254 15.0 0.0 0.00 0.00 0.00 56 1009.0
20260504193034 60 251 15.0 0.0 0.00 0.00 0.00 62 1009.2
20260504191534 59 251 15.0 0.0 0.00 0.00 0.00 60 1009.3
20260504190037 61 260 14.0 0.0 0.00 0.00 0.00 54 1009.4
20260504184533 61 260 14.0 0.0 0.00 0.00 0.00 58 1009.4
20260504183032 61 287 14.0 0.0 0.00 0.00 0.00 55 1009.5
20260504181532 59 277 15.0 0.0 0.00 0.00 0.00 63 1009.3
20260504180032 59 240 15.0 0.0 0.00 0.00 0.00 63 1009.2
20260504174532 60 254 14.0 0.0 0.00 0.00 0.00 63 1009.2
20260504173030 60 266 14.0 0.0 0.00 0.00 0.00 59 1009.5
20260504171539 60 274 14.0 0.0 0.00 0.00 0.00 60 1009.4
20260504081531 46 266 4.0 0.0 0.00 0.00 0.00 67 1010.5